[keps] orb14254.amsat

 
From: "[RADIOCOMM LIST]" <list.admin@aus-city.com>
Date: September 11th 2014

SB KEPS @ AMSAT $ORB14254 O Orbital Elements 14254 OSCAR

HR AMSAT ORBITAL ELEMENTS FOR OSCAR SATELLITES FROM WA5QGD FORT WORTH,TX September 11, 2014 BID: ORB14254 O TO ALL RADIO AMATEURS BT

Satellite: AO-07 Catalog number: 07530 Epoch time: 14254 80586541 Element set: 58 Inclination: 101 4826 deg RA of node: 233 8146 deg Eccentricity: 0 0012288 Arg of perigee: 124 5377 deg Mean anomaly: 309 7187 deg Mean motion: 12 53606844 rev/day Decay rate: -1 5e-07 rev/day^2 Epoch rev: 82237 Checksum: 301

Satellite: FO-29 Catalog number: 24278 Epoch time: 14253 64663101 Element set: 460 Inclination: 098 5151 deg RA of node: 255 7115 deg Eccentricity: 0 0351442 Arg of perigee: 075 9942 deg Mean anomaly: 055 3336 deg Mean motion: 13 53029084 rev/day Decay rate: -2 8e-07 rev/day^2 Epoch rev: 89222 Checksum: 301

Satellite: SO-33 Catalog number: 25509 Epoch time: 14253 75436214 Element set: 832 Inclination: 031 4336 deg RA of node: 035 5335 deg Eccentricity: 0 0349215 Arg of perigee: 144 1336 deg Mean anomaly: 319 9084 deg Mean motion: 14 29598617 rev/day Decay rate: 1 235e-05 rev/day^2 Epoch rev: 82940 Checksum: 306

Satellite: RS-22 Catalog number: 27939 Epoch time: 14254 54943406 Element set: 838 Inclination: 097 8160 deg RA of node: 064 4422 deg Eccentricity: 0 0012815 Arg of perigee: 189 2090 deg Mean anomaly: 170 8878 deg Mean motion: 14 65314307 rev/day Decay rate: 8 60e-06 rev/day^2 Epoch rev: 58537 Checksum: 328

Satellite: HO-68 Catalog number: 36122 Epoch time: 14254 68131594 Element set: 927 Inclination: 100 2401 deg RA of node: 303 8866 deg Eccentricity: 0 0007592 Arg of perigee: 040 7316 deg Mean anomaly: 319 4362 deg Mean motion: 13 16317858 rev/day Decay rate: -4 3e-07 rev/day^2 Epoch rev: 22781 Checksum: 295

Satellite: AO-73 Catalog number: 39444 Epoch time: 14253 77171183 Element set: 242 Inclination: 097 7652 deg RA of node: 321 4925 deg Eccentricity: 0 0061408 Arg of perigee: 326 3202 deg Mean anomaly: 033 4114 deg Mean motion: 14 78561479 rev/day Decay rate: 1 492e-05 rev/day^2 Epoch rev: 4211 Checksum: 292

Satellite: EO-79 Catalog number: 40025 Epoch time: 14254 65071363 Element set: 232 Inclination: 097 9746 deg RA of node: 149 4367 deg Eccentricity: 0 0014646 Arg of perigee: 021 1824 deg Mean anomaly: 338 9998 deg Mean motion: 14 85417483 rev/day Decay rate: 2 073e-05 rev/day^2 Epoch rev: 1242 Checksum: 320

/EX SB KEPS @ AMSAT $ORB14254 D Orbital Elements 14254 MICROS

HR AMSAT ORBITAL ELEMENTS FOR THE MICROSATS FROM WA5QGD FORT WORTH,TX September 11, 2014 BID: ORB14254 D TO ALL RADIO AMATEURS BT

Satellite: UO-11 Catalog number: 14781 Epoch time: 14254 74422117 Element set: 594 Inclination: 097 8431 deg RA of node: 313 1474 deg Eccentricity: 0 0007457 Arg of perigee: 253 8888 deg Mean anomaly: 106 1504 deg Mean motion: 14 81722385 rev/day Decay rate: 9 54e-06 rev/day^2 Epoch rev: 64078 Checksum: 316

Satellite: AO-16 Catalog number: 20439 Epoch time: 14253 81094917 Element set: 108 Inclination: 098 5111 deg RA of node: 189 5520 deg Eccentricity: 0 0009721 Arg of perigee: 264 9465 deg Mean anomaly: 148 3840 deg Mean motion: 14 32383927 rev/day Decay rate: 1 88e-06 rev/day^2 Epoch rev: 28674 Checksum: 322

Satellite: LO-19 Catalog number: 20442 Epoch time: 14254 82219560 Element set: 45 Inclination: 098 4821 deg RA of node: 190 9386 deg Eccentricity: 0 0010757 Arg of perigee: 249 3292 deg Mean anomaly: 110 6739 deg Mean motion: 14 32584886 rev/day Decay rate: 1 60e-06 rev/day^2 Epoch rev: 28708 Checksum: 317

Satellite: AO-27 Catalog number: 22825 Epoch time: 14254 82855679 Element set: 756 Inclination: 098 6694 deg RA of node: 200 4766 deg Eccentricity: 0 0009145 Arg of perigee: 050 3980 deg Mean anomaly: 002 5126 deg Mean motion: 14 29743245 rev/day Decay rate: 1 51e-06 rev/day^2 Epoch rev: 9316 Checksum: 316

Satellite: IO-26 Catalog number: 22826 Epoch time: 14253 81583186 Element set: 513 Inclination: 098 6635 deg RA of node: 199 6742 deg Eccentricity: 0 0009619 Arg of perigee: 045 9216 deg Mean anomaly: 314 2756 deg Mean motion: 14 30045633 rev/day Decay rate: 1 98e-06 rev/day^2 Epoch rev: 9315 Checksum: 322

Satellite: GO-32 Catalog number: 25397 Epoch time: 14253 84057455 Element set: 435 Inclination: 098 4785 deg RA of node: 208 6720 deg Eccentricity: 0 0002321 Arg of perigee: 080 7803 deg Mean anomaly: 308 4193 deg Mean motion: 14 23459139 rev/day Decay rate: 9 9e-07 rev/day^2 Epoch rev: 84005 Checksum: 311

Satellite: NO-44 Catalog number: 26931 Epoch time: 14254 20419297 Element set: 690 Inclination: 067 0522 deg RA of node: 176 6409 deg Eccentricity: 0 0007378 Arg of perigee: 277 6988 deg Mean anomaly: 082 3275 deg Mean motion: 14 30147299 rev/day Decay rate: 1 12e-06 rev/day^2 Epoch rev: 67590 Checksum: 329

Satellite: SO-50 Catalog number: 27607 Epoch time: 14253 71615926 Element set: 497 Inclination: 064 5572 deg RA of node: 331 5967 deg Eccentricity: 0 0058210 Arg of perigee: 347 4423 deg Mean anomaly: 012 5225 deg Mean motion: 14 73892999 rev/day Decay rate: 7 30e-06 rev/day^2 Epoch rev: 63008 Checksum: 320

Satellite: CO-55 Catalog number: 27844 Epoch time: 14253 59145931 Element set: 10 Inclination: 098 6998 deg RA of node: 261 1372 deg Eccentricity: 0 0010124 Arg of perigee: 035 6616 deg Mean anomaly: 079 6071 deg Mean motion: 14 21551833 rev/day Decay rate: 3 01e-06 rev/day^2 Epoch rev: 58071 Checksum: 292

Satellite: CO-57 Catalog number: 27848 Epoch time: 14253 74418473 Element set: 951 Inclination: 098 7093 deg RA of node: 261 0455 deg Eccentricity: 0 0010165 Arg of perigee: 041 6986 deg Mean anomaly: 012 8347 deg Mean motion: 14 21233092 rev/day Decay rate: 2 44e-06 rev/day^2 Epoch rev: 58065 Checksum: 311

Satellite: AO-51 Catalog number: 28375 Epoch time: 14253 79779619 Element set: 927 Inclination: 098 2575 deg RA of node: 197 8222 deg Eccentricity: 0 0084346 Arg of perigee: 093 7807 deg Mean anomaly: 267 3032 deg Mean motion: 14 41421391 rev/day Decay rate: 3 17e-06 rev/day^2 Epoch rev: 53624 Checksum: 339

Satellite: CP3 Catalog number: 31129 Epoch time: 14254 82773925 Element set: 840 Inclination: 097 9439 deg RA of node: 228 4668 deg Eccentricity: 0 0099730 Arg of perigee: 101 0931 deg Mean anomaly: 324 8323 deg Mean motion: 14 54824315 rev/day Decay rate: 1 369e-05 rev/day^2 Epoch rev: 39263 Checksum: 322

Satellite: CO-65 Catalog number: 32785 Epoch time: 14254 79332235 Element set: 49 Inclination: 097 6905 deg RA of node: 303 2136 deg Eccentricity: 0 0012418 Arg of perigee: 261 3234 deg Mean anomaly: 161 6190 deg Mean motion: 14 85515287 rev/day Decay rate: 1 784e-05 rev/day^2 Epoch rev: 34488 Checksum: 316

Satellite: PRISM Catalog number: 33493 Epoch time: 14254 86265249 Element set: 277 Inclination: 098 2531 deg RA of node: 074 2515 deg Eccentricity: 0 0017969 Arg of perigee: 157 3944 deg Mean anomaly: 202 8113 deg Mean motion: 14 89924159 rev/day Decay rate: 4 133e-05 rev/day^2 Epoch rev: 30508 Checksum: 317

Satellite: SOHLA-1 Catalog number: 33496 Epoch time: 14254 80092262 Element set: 449 Inclination: 098 1799 deg RA of node: 015 9951 deg Eccentricity: 0 0005453 Arg of perigee: 337 2810 deg Mean anomaly: 150 5194 deg Mean motion: 14 70883226 rev/day Decay rate: 6 19e-06 rev/day^2 Epoch rev: 30224 Checksum: 305

Satellite: TISAT-1 Catalog number: 36799 Epoch time: 14254 75470554 Element set: 538 Inclination: 098 0170 deg RA of node: 347 4194 deg Eccentricity: 0 0014510 Arg of perigee: 043 9369 deg Mean anomaly: 316 3002 deg Mean motion: 14 86013953 rev/day Decay rate: 2 609e-05 rev/day^2 Epoch rev: 22557 Checksum: 308

Satellite: STUDSAT Catalog number: 36801 Epoch time: 14253 81207434 Element set: 883 Inclination: 098 0395 deg RA of node: 356 2746 deg Eccentricity: 0 0008737 Arg of perigee: 015 2941 deg Mean anomaly: 099 8460 deg Mean motion: 14 98185749 rev/day Decay rate: 1 4295e-04 rev/day^2 Epoch rev: 22594 Checksum: 337

Satellite: ALMASAT-1 Catalog number: 38078 Epoch time: 14253 83970999 Element set: 137 Inclination: 069 4687 deg RA of node: 212 0170 deg Eccentricity: 0 0580885 Arg of perigee: 277 8294 deg Mean anomaly: 097 1877 deg Mean motion: 14 54095465 rev/day Decay rate: 3 0019e-04 rev/day^2 Epoch rev: 13407 Checksum: 351

Satellite: XATCOBEO Catalog number: 38082 Epoch time: 14243 34478676 Element set: 563 Inclination: 069 3815 deg RA of node: 097 0364 deg Eccentricity: 0 0033293 Arg of perigee: 225 1799 deg Mean anomaly: 135 4582 deg Mean motion: 16 41261006 rev/day Decay rate: 1 3583328e-01 rev/day^2 Epoch rev: 13623 Checksum: 317

Satellite: CUBEBUG-1 Catalog number: 39153 Epoch time: 14254 75402158 Element set: 462 Inclination: 098 0375 deg RA of node: 334 8699 deg Eccentricity: 0 0018844 Arg of perigee: 071 7728 deg Mean anomaly: 288 5536 deg Mean motion: 14 77906242 rev/day Decay rate: 1 461e-05 rev/day^2 Epoch rev: 7434 Checksum: 331

Satellite: ESTCUBE-1 Catalog number: 39161 Epoch time: 14254 73287723 Element set: 460 Inclination: 098 0930 deg RA of node: 334 9820 deg Eccentricity: 0 0011221 Arg of perigee: 116 6401 deg Mean anomaly: 243 5968 deg Mean motion: 14 70147984 rev/day Decay rate: 1 133e-05 rev/day^2 Epoch rev: 7231 Checksum: 282

Satellite: DUCHIFAT-1 Catalog number: 40021 Epoch time: 14254 71079196 Element set: 239 Inclination: 097 9737 deg RA of node: 149 5321 deg Eccentricity: 0 0015123 Arg of perigee: 024 3256 deg Mean anomaly: 335 8674 deg Mean motion: 14 85588488 rev/day Decay rate: 2 706e-05 rev/day^2 Epoch rev: 1242 Checksum: 307

Satellite: NANOSATCBR1 Catalog number: 40024 Epoch time: 14254 71648717 Element set: 229 Inclination: 097 9737 deg RA of node: 149 5070 deg Eccentricity: 0 0014273 Arg of perigee: 021 7928 deg Mean anomaly: 338 3899 deg Mean motion: 14 85469395 rev/day Decay rate: 2 447e-05 rev/day^2 Epoch rev: 1242 Checksum: 326

